Terug naar catalogus

JITIANXING A-03 XING

ActiefWetenschapSSO
NORAD 60748·PAYLOAD·🇨🇳 China
Deze satellietnaam is nog niet bevestigd door officiële bronnen.

Gelanceerd Aug 29, 2024 vanaf Yellow Sea Launch Area

Loading…

Volgende Passages (komende 24 uur)

TLE

VersSource: Space-Track

Epoch: Sep 14, 2026, 22:53 UTC

1 60748U 24153D   26257.95369140  .00016275  00000-0  55936-3 0  9991
2 60748  97.6909  38.7720 0001026 208.2234 151.8951 15.30186219113566

Volg JITIANXING A-03 XING in realtime met AllMySat

Download on the App Store